Location: Amber Place
(27.9751°N, 82.3711°W)
Time: 19:01:21
(UTC+00:00)

N. Korean satellite - Pass Details

Date: 25 September 2021
Orbit: 450 x 495 km, 97.3° (Epoch: 16 October)

Event Time Altitude Azimuth Distance (km) Brightness Sun altitude
Rises 09:52:19 0° 32° (NNE) 2,534 10.8 -20.0°
Reaches altitude 10° 09:54:53 10° 52° (NE) 1,661 10.2 -19.4°
Maximum altitude 09:57:23 18° 96° (E) 1,253 9.6 -18.9°
Drops below altitude 10° 09:59:53 10° 141° (SE) 1,670 9.7 -18.4°
Sets 10:02:27 0° 161° (SSE) 2,554 10.4 -17.8°
